Overview Statistics Trail Chart Weather Telemetry Raw packets
 

This is the latest recevied weather packets stored in our database for station/object K7DC. If no packets are shown the sender has not sent any weather packets the latest 10 day(s).

<< 62 63 64 65 66 67 68 >>
Time Temp. Humidity Pressure Rain* Wind** Luminosity Snow
1788208928 20° C 95% 1019.7 hPa 1.27 mm - 126 W/m² -
1788208622 20° C 95% 1019.7 hPa 1.78 mm - 84 W/m² -
1788208321 20° C 95% 1019.5 hPa 3.05 mm - 67 W/m² -
1788208020 20° C 95% 1019.4 hPa 4.32 mm - 68 W/m² -
1788207716 20° C 95% 1019.8 hPa 3.05 mm - 64 W/m² -
1788207415 19.44° C 95% 1019.9 hPa 3.05 mm - 54 W/m² -
1788207115 19.44° C 95% 1020 hPa 3.05 mm - 52 W/m² -
1788206811 19.44° C 94% 1020.2 hPa 3.56 mm - 46 W/m² -
1788206511 19.44° C 94% 1020 hPa 3.05 mm - 44 W/m² -
1788206206 19.44° C 94% 1020.7 hPa 4.32 mm - 48 W/m² -
1788205901 19.44° C 93% 1020.9 hPa 3.05 mm - 46 W/m² -
1788205596 20° C 93% 1021 hPa 1.78 mm - 45 W/m² -
1788205292 20° C 93% 1021.1 hPa 1.78 mm - 42 W/m² -
1788204992 20° C 93% 1021 hPa 0 mm - 36 W/m² -
1788204687 20° C 93% 1021.2 hPa 1.27 mm - 36 W/m² -
1788204382 20° C 93% 1020.9 hPa 1.27 mm - 29 W/m² -
1788204078 20° C 93% 1021 hPa 1.78 mm - 33 W/m² -
1788203774 20° C 93% 1020.8 hPa 1.78 mm - 34 W/m² -
1788203469 20° C 93% 1021.1 hPa 0 mm - 37 W/m² -
1788203164 20° C 93% 1021.3 hPa 1.27 mm - 32 W/m² -
1788202863 20° C 93% 1021.3 hPa 3.05 mm - 27 W/m² -
1788202559 20° C 92% 1021.1 hPa 3.05 mm - 37 W/m² -
1788202255 20° C 92% 1021.5 hPa 8.89 mm - 34 W/m² -
1788201954 20° C 93% 1021.1 hPa 7.87 mm - 63 W/m² -
1788201650 20° C 92% 1021 hPa 1.78 mm - 77 W/m² -

* Rain latest hour (hover to see other rain measurements)
** Current wind speed in m/s (hover to see current wind gust speed)